Year,Month,Day,Hour,Minute,Value (Times are PST for temperature in C)
2020,09,20,00,00,15.20
2020,09,20,00,01,15.20
2020,09,20,00,02,15.20
2020,09,20,00,03,15.20
2020,09,20,00,04,15.20
2020,09,20,00,05,15.20
2020,09,20,00,06,15.20
2020,09,20,00,07,15.20
2020,09,20,00,08,15.10
2020,09,20,00,09,15.10
2020,09,20,00,10,15.10
2020,09,20,00,11,15.10
2020,09,20,00,12,15.10
2020,09,20,00,13,15.10
2020,09,20,00,14,15.10
2020,09,20,00,15,15.10
2020,09,20,00,16,15.10
2020,09,20,00,17,15.10
2020,09,20,00,18,15.10
2020,09,20,00,19,15.10
2020,09,20,00,20,15.10
2020,09,20,00,21,15.10
2020,09,20,00,22,15.10
2020,09,20,00,23,15.10
2020,09,20,00,24,15.10
2020,09,20,00,25,15.10
2020,09,20,00,26,15.10
2020,09,20,00,27,15.10
2020,09,20,00,28,15.10
2020,09,20,00,29,15.10
2020,09,20,00,30,15.10
2020,09,20,00,31,15.10
2020,09,20,00,32,15.10
2020,09,20,00,33,15.20
2020,09,20,00,34,15.20
2020,09,20,00,35,15.20
2020,09,20,00,36,15.20
2020,09,20,00,37,15.10
2020,09,20,00,39,15.20
2020,09,20,00,40,15.20
2020,09,20,00,41,15.20
2020,09,20,00,42,15.20
2020,09,20,00,43,15.20
2020,09,20,00,44,15.20
2020,09,20,00,45,15.20
2020,09,20,00,46,15.20
2020,09,20,00,47,15.20
2020,09,20,00,48,15.20
2020,09,20,00,49,15.20
2020,09,20,00,50,15.20
2020,09,20,00,51,15.20
2020,09,20,00,52,15.20
2020,09,20,00,53,15.20
2020,09,20,00,54,15.20
2020,09,20,00,55,15.20
2020,09,20,00,56,15.20
2020,09,20,00,58,15.20
2020,09,20,00,59,15.20
2020,09,20,01,00,15.20
2020,09,20,01,01,15.20
2020,09,20,01,02,15.20
2020,09,20,01,03,15.20
2020,09,20,01,04,15.20
2020,09,20,01,05,15.20
2020,09,20,01,07,15.20
2020,09,20,01,08,15.20
2020,09,20,01,09,15.20
2020,09,20,01,10,15.20
2020,09,20,01,11,15.20
2020,09,20,01,12,15.20
2020,09,20,01,13,15.20
2020,09,20,01,14,15.20
2020,09,20,01,15,15.20
2020,09,20,01,16,15.20
2020,09,20,01,18,15.20
2020,09,20,01,19,15.20
2020,09,20,01,20,15.20
2020,09,20,01,21,15.20
2020,09,20,01,22,15.20
2020,09,20,01,23,15.10
2020,09,20,01,24,15.10
2020,09,20,01,25,15.10
2020,09,20,01,26,15.10
2020,09,20,01,27,15.10
2020,09,20,01,28,15.10
2020,09,20,01,29,15.10
2020,09,20,01,30,15.10
2020,09,20,01,31,15.10
2020,09,20,01,33,15.00
2020,09,20,01,34,15.00
2020,09,20,01,35,15.00
2020,09,20,01,36,14.90
2020,09,20,01,37,14.90
2020,09,20,01,39,14.90
2020,09,20,01,41,14.80
2020,09,20,01,42,14.80
2020,09,20,01,43,14.80
2020,09,20,01,44,14.70
2020,09,20,01,45,14.70
2020,09,20,01,46,14.70
2020,09,20,01,47,14.70
2020,09,20,01,48,14.70
2020,09,20,01,50,14.60
2020,09,20,01,51,14.60
2020,09,20,01,52,14.60
2020,09,20,01,53,14.60
2020,09,20,01,54,14.60
2020,09,20,01,55,14.60
2020,09,20,01,56,14.60
2020,09,20,01,57,14.60
2020,09,20,01,58,14.60
2020,09,20,01,59,14.50
2020,09,20,02,00,14.50
2020,09,20,02,01,14.50
2020,09,20,02,02,14.40
2020,09,20,02,03,14.40
2020,09,20,02,04,14.40
2020,09,20,02,05,14.30
2020,09,20,02,07,14.30
2020,09,20,02,08,14.30
2020,09,20,02,09,14.30
2020,09,20,02,10,14.30
2020,09,20,02,11,14.20
2020,09,20,02,12,14.30
2020,09,20,02,13,14.20
2020,09,20,02,14,14.20
2020,09,20,02,15,14.20
2020,09,20,02,16,14.20
2020,09,20,02,17,14.20
2020,09,20,02,18,14.20
2020,09,20,02,19,14.20
2020,09,20,02,20,14.20
2020,09,20,02,21,14.20
2020,09,20,02,22,14.20
2020,09,20,02,23,14.20
2020,09,20,02,24,14.30
2020,09,20,02,25,14.30
2020,09,20,02,26,14.30
2020,09,20,02,27,14.30
2020,09,20,02,28,14.30
2020,09,20,02,29,14.30
2020,09,20,02,30,14.30
2020,09,20,02,31,14.30
2020,09,20,02,33,14.30
2020,09,20,02,34,14.30
2020,09,20,02,35,14.40
2020,09,20,02,36,14.40
2020,09,20,02,37,14.40
2020,09,20,02,38,14.40
2020,09,20,02,39,14.40
2020,09,20,02,40,14.40
2020,09,20,02,41,14.50
2020,09,20,02,42,14.50
2020,09,20,02,43,14.50
2020,09,20,02,44,14.50
2020,09,20,02,45,14.50
2020,09,20,02,46,14.50
2020,09,20,02,47,14.50
2020,09,20,02,48,14.50
2020,09,20,02,49,14.50
2020,09,20,02,50,14.50
2020,09,20,02,51,14.60
2020,09,20,02,52,14.60
2020,09,20,02,53,14.60
2020,09,20,02,54,14.60
2020,09,20,02,55,14.60
2020,09,20,02,56,14.50
2020,09,20,02,57,14.60
2020,09,20,02,59,14.60
2020,09,20,03,00,14.60
2020,09,20,03,01,14.60
2020,09,20,03,02,14.60
2020,09,20,03,03,14.60
2020,09,20,03,05,14.60
2020,09,20,03,06,14.60
2020,09,20,03,07,14.60
2020,09,20,03,08,14.60
2020,09,20,03,09,14.60
2020,09,20,03,10,14.60
2020,09,20,03,11,14.60
2020,09,20,03,12,14.60
2020,09,20,03,14,14.60
2020,09,20,03,15,14.60
2020,09,20,03,16,14.70
2020,09,20,03,17,14.70
2020,09,20,03,18,14.70
2020,09,20,03,19,14.70
2020,09,20,03,20,14.70
2020,09,20,03,22,14.70
2020,09,20,03,23,14.70
2020,09,20,03,24,14.70
2020,09,20,03,25,14.70
2020,09,20,03,27,14.70
2020,09,20,03,28,14.70
2020,09,20,03,29,14.70
2020,09,20,03,30,14.70
2020,09,20,03,31,14.80
2020,09,20,03,33,14.80
2020,09,20,03,34,14.80
2020,09,20,03,35,14.80
2020,09,20,03,36,14.80
2020,09,20,03,37,14.80
2020,09,20,03,38,14.80
2020,09,20,03,39,14.80
2020,09,20,03,40,14.80
2020,09,20,03,41,14.80
2020,09,20,03,42,14.80
2020,09,20,03,43,14.90
2020,09,20,03,44,14.90
2020,09,20,03,45,14.90
2020,09,20,03,46,14.90
2020,09,20,03,47,14.90
2020,09,20,03,48,14.90
2020,09,20,03,49,14.90
2020,09,20,03,50,14.90
2020,09,20,03,51,14.90
2020,09,20,03,52,15.00
2020,09,20,03,53,15.00
2020,09,20,03,54,15.00
2020,09,20,03,55,15.00
2020,09,20,03,56,15.00
2020,09,20,03,57,15.10
2020,09,20,03,58,15.10
2020,09,20,03,59,15.00
2020,09,20,04,00,15.10
2020,09,20,04,01,15.00
2020,09,20,04,02,15.00
2020,09,20,04,03,15.00
2020,09,20,04,04,15.00
2020,09,20,04,05,14.90
2020,09,20,04,06,14.90
2020,09,20,04,07,14.90
2020,09,20,04,08,14.90
2020,09,20,04,09,14.90
2020,09,20,04,10,14.90
2020,09,20,04,12,14.80
2020,09,20,04,13,14.80
2020,09,20,04,14,14.80
2020,09,20,04,15,14.80
2020,09,20,04,16,14.80
2020,09,20,04,17,14.70
2020,09,20,04,18,14.70
2020,09,20,04,19,14.70
2020,09,20,04,20,14.70
2020,09,20,04,21,14.70
2020,09,20,04,23,14.60
2020,09,20,04,24,14.60
2020,09,20,04,25,14.60
2020,09,20,04,26,14.60
2020,09,20,04,27,14.60
2020,09,20,04,29,14.60
2020,09,20,04,30,14.60
2020,09,20,04,31,14.60
2020,09,20,04,32,14.60
2020,09,20,04,33,14.60
2020,09,20,04,34,14.60
2020,09,20,04,35,14.50
2020,09,20,04,36,14.50
2020,09,20,04,37,14.50
2020,09,20,04,38,14.50
2020,09,20,04,39,14.50
2020,09,20,04,40,14.50
2020,09,20,04,41,14.60
2020,09,20,04,42,14.60
2020,09,20,04,43,14.60
2020,09,20,04,44,14.60
2020,09,20,04,46,14.60
2020,09,20,04,47,14.60
2020,09,20,04,48,14.60
2020,09,20,04,49,14.60
2020,09,20,04,51,14.60
2020,09,20,04,52,14.60
2020,09,20,04,53,14.60
2020,09,20,04,54,14.60
2020,09,20,04,55,14.60
2020,09,20,04,56,14.60
2020,09,20,04,57,14.60
2020,09,20,04,58,14.60
2020,09,20,04,59,14.60
2020,09,20,05,00,14.60
2020,09,20,05,01,14.60
2020,09,20,05,02,14.60
2020,09,20,05,03,14.60
2020,09,20,05,04,14.60
2020,09,20,05,05,14.60
2020,09,20,05,06,14.50
2020,09,20,05,08,14.50
2020,09,20,05,10,14.40
2020,09,20,05,12,14.40
2020,09,20,05,13,14.40
2020,09,20,05,14,14.40
2020,09,20,05,15,14.40
2020,09,20,05,16,14.40
2020,09,20,05,17,14.40
2020,09,20,05,18,14.40
2020,09,20,05,19,14.40
2020,09,20,05,20,14.30
2020,09,20,05,21,14.30
2020,09,20,05,22,14.30
2020,09,20,05,23,14.30
2020,09,20,05,24,14.30
2020,09,20,05,25,14.30
2020,09,20,05,26,14.30
2020,09,20,05,27,14.30
2020,09,20,05,28,14.30
2020,09,20,05,29,14.30
2020,09,20,05,30,14.30
2020,09,20,05,31,14.30
2020,09,20,05,32,14.30
2020,09,20,05,34,14.20
2020,09,20,05,35,14.20
2020,09,20,05,36,14.20
2020,09,20,05,37,14.20
2020,09,20,05,38,14.20
2020,09,20,05,39,14.20
2020,09,20,05,40,14.20
2020,09,20,05,42,14.10
2020,09,20,05,43,14.10
2020,09,20,05,44,14.10
2020,09,20,05,45,14.10
2020,09,20,05,46,14.10
2020,09,20,05,47,14.10
2020,09,20,05,48,14.00
2020,09,20,05,49,14.00
2020,09,20,05,50,14.00
2020,09,20,05,51,14.00
2020,09,20,05,52,13.90
2020,09,20,05,53,13.90
2020,09,20,05,54,13.90
2020,09,20,05,55,13.90
2020,09,20,05,56,13.90
2020,09,20,05,57,13.90
2020,09,20,05,58,13.90
2020,09,20,05,59,13.90
2020,09,20,06,00,13.90
2020,09,20,06,02,13.90
2020,09,20,06,03,13.90
2020,09,20,06,04,13.90
2020,09,20,06,05,13.90
2020,09,20,06,06,13.90
2020,09,20,06,08,13.90
2020,09,20,06,09,13.90
2020,09,20,06,10,13.90
2020,09,20,06,11,13.90
2020,09,20,06,12,13.90
2020,09,20,06,13,13.90
2020,09,20,06,14,13.90
2020,09,20,06,15,13.90
2020,09,20,06,16,13.90
2020,09,20,06,17,13.80
2020,09,20,06,18,13.80
2020,09,20,06,19,13.80
2020,09,20,06,21,13.80
2020,09,20,06,22,13.80
2020,09,20,06,23,13.70
2020,09,20,06,24,13.70
2020,09,20,06,25,13.70
2020,09,20,06,26,13.70
2020,09,20,06,27,13.70
2020,09,20,06,28,13.70
2020,09,20,06,29,13.70
2020,09,20,06,30,13.70
2020,09,20,06,31,13.70
2020,09,20,06,32,13.70
2020,09,20,06,33,13.70
2020,09,20,06,34,13.70
2020,09,20,06,35,13.70
2020,09,20,06,36,13.70
2020,09,20,06,37,13.80
2020,09,20,06,38,13.80
2020,09,20,06,39,13.80
2020,09,20,06,40,13.80
2020,09,20,06,41,13.70
2020,09,20,06,42,13.70
2020,09,20,06,43,13.70
2020,09,20,06,44,13.70
2020,09,20,06,45,13.70
2020,09,20,06,46,13.70
2020,09,20,06,47,13.70
2020,09,20,06,48,13.70
2020,09,20,06,49,13.60
2020,09,20,06,50,13.60
2020,09,20,06,51,13.60
2020,09,20,06,53,13.60
2020,09,20,06,54,13.50
2020,09,20,06,55,13.50
2020,09,20,06,56,13.50
2020,09,20,06,57,13.40
2020,09,20,06,58,13.40
2020,09,20,06,59,13.40
2020,09,20,07,00,13.40
2020,09,20,07,02,13.40
2020,09,20,07,03,13.40
2020,09,20,07,04,13.40
2020,09,20,07,05,13.40
2020,09,20,07,06,13.30
2020,09,20,07,07,13.30
2020,09,20,07,08,13.30
2020,09,20,07,09,13.30
2020,09,20,07,10,13.30
2020,09,20,07,11,13.30
2020,09,20,07,13,13.30
2020,09,20,07,14,13.30
2020,09,20,07,15,13.30
2020,09,20,07,16,13.30
2020,09,20,07,17,13.30
2020,09,20,07,19,13.30
2020,09,20,07,20,13.30
2020,09,20,07,21,13.30
2020,09,20,07,22,13.30
2020,09,20,07,23,13.30
2020,09,20,07,24,13.30
2020,09,20,07,25,13.30
2020,09,20,07,26,13.30
2020,09,20,07,27,13.30
2020,09,20,07,28,13.30
2020,09,20,07,29,13.30
2020,09,20,07,30,13.30
2020,09,20,07,31,13.30
2020,09,20,07,32,13.30
2020,09,20,07,33,13.30
2020,09,20,07,34,13.30
2020,09,20,07,35,13.30
2020,09,20,07,36,13.30
2020,09,20,07,37,13.30
2020,09,20,07,38,13.20
2020,09,20,07,39,13.30
2020,09,20,07,40,13.30
2020,09,20,07,41,13.30
2020,09,20,07,42,13.30
2020,09,20,07,43,13.30
2020,09,20,07,44,13.30
2020,09,20,07,45,13.30
2020,09,20,07,47,13.30
2020,09,20,07,48,13.30
2020,09,20,07,49,13.30
2020,09,20,07,50,13.30
2020,09,20,07,51,13.30
2020,09,20,07,53,13.30
2020,09,20,07,54,13.30
2020,09,20,07,55,13.30
2020,09,20,07,56,13.40
2020,09,20,07,57,13.40
2020,09,20,07,58,13.50
2020,09,20,07,59,13.50
2020,09,20,08,00,13.60
2020,09,20,08,02,13.60
2020,09,20,08,03,13.60
2020,09,20,08,04,13.70
2020,09,20,08,05,13.70
2020,09,20,08,06,13.70
2020,09,20,08,07,13.70
2020,09,20,08,08,13.70
2020,09,20,08,09,13.70
2020,09,20,08,10,13.70
2020,09,20,08,11,13.80
2020,09,20,08,12,13.80
2020,09,20,08,13,13.80
2020,09,20,08,14,13.80
2020,09,20,08,15,13.80
2020,09,20,08,16,13.80
2020,09,20,08,17,13.80
2020,09,20,08,18,13.80
2020,09,20,08,19,13.80
2020,09,20,08,20,13.80
2020,09,20,08,21,13.80
2020,09,20,08,22,13.80
2020,09,20,08,23,13.80
2020,09,20,08,24,13.90
2020,09,20,08,25,13.90
2020,09,20,08,26,13.90
2020,09,20,08,28,13.90
2020,09,20,08,29,13.90
2020,09,20,08,30,13.90
2020,09,20,08,31,13.90
2020,09,20,08,32,13.90
2020,09,20,08,33,13.90
2020,09,20,08,34,13.90
2020,09,20,08,35,14.00
2020,09,20,08,36,14.00
2020,09,20,08,37,14.00
2020,09,20,08,38,14.10
2020,09,20,08,39,14.10
2020,09,20,08,40,14.10
2020,09,20,08,41,14.10
2020,09,20,08,42,14.10
2020,09,20,08,43,14.10
2020,09,20,08,44,14.10
2020,09,20,08,45,14.10
2020,09,20,08,46,14.10
2020,09,20,08,47,14.10
2020,09,20,08,48,14.10
2020,09,20,08,49,14.10
2020,09,20,08,50,14.10
2020,09,20,08,51,14.20
2020,09,20,08,52,14.20
2020,09,20,08,53,14.20
2020,09,20,08,54,14.20
2020,09,20,08,55,14.20
2020,09,20,08,56,14.30
2020,09,20,08,58,14.30
2020,09,20,09,00,14.40
2020,09,20,09,01,14.40
2020,09,20,09,02,14.40
2020,09,20,09,03,14.50
2020,09,20,09,04,14.60
2020,09,20,09,05,14.60
2020,09,20,09,06,14.70
2020,09,20,09,07,14.70
2020,09,20,09,08,14.70
2020,09,20,09,09,14.80
2020,09,20,09,10,14.80
2020,09,20,09,11,14.90
2020,09,20,09,12,14.90
2020,09,20,09,13,15.00
2020,09,20,09,14,15.10
2020,09,20,09,15,15.10
2020,09,20,09,16,15.20
2020,09,20,09,17,15.20
2020,09,20,09,18,15.30
2020,09,20,09,19,15.30
2020,09,20,09,20,15.40
2020,09,20,09,21,15.50
2020,09,20,09,22,15.60
2020,09,20,09,23,15.60
2020,09,20,09,24,15.70
2020,09,20,09,26,15.90
2020,09,20,09,27,15.90
2020,09,20,09,28,16.00
2020,09,20,09,29,16.00
2020,09,20,09,30,16.10
2020,09,20,09,31,16.10
2020,09,20,09,32,16.10
2020,09,20,09,33,16.10
2020,09,20,09,34,16.10
2020,09,20,09,35,16.20
2020,09,20,09,36,16.20
2020,09,20,09,37,16.30
2020,09,20,09,38,16.30
2020,09,20,09,39,16.40
2020,09,20,09,40,16.40
2020,09,20,09,41,16.50
2020,09,20,09,43,16.70
2020,09,20,09,44,16.80
2020,09,20,09,45,16.80
2020,09,20,09,46,16.90
2020,09,20,09,47,16.90
2020,09,20,09,48,16.90
2020,09,20,09,49,17.00
2020,09,20,09,50,17.10
2020,09,20,09,51,17.10
2020,09,20,09,52,17.10
2020,09,20,09,53,17.20
2020,09,20,09,54,17.20
2020,09,20,09,56,17.30
2020,09,20,09,57,17.30
2020,09,20,09,58,17.30
2020,09,20,09,59,17.20
2020,09,20,10,00,17.20
2020,09,20,10,01,17.20
2020,09,20,10,02,17.20
2020,09,20,10,03,17.30
2020,09,20,10,04,17.30
2020,09,20,10,05,17.30
2020,09,20,10,06,17.40
2020,09,20,10,07,17.40
2020,09,20,10,08,17.40
2020,09,20,10,09,17.50
2020,09,20,10,10,17.50
2020,09,20,10,11,17.50
2020,09,20,10,12,17.50
2020,09,20,10,13,17.50
2020,09,20,10,14,17.60
2020,09,20,10,15,17.60
2020,09,20,10,16,17.60
2020,09,20,10,17,17.70
2020,09,20,10,18,17.70
2020,09,20,10,19,17.70
2020,09,20,10,20,17.80
2020,09,20,10,21,17.80
2020,09,20,10,22,17.80
2020,09,20,10,23,17.90
2020,09,20,10,24,17.90
2020,09,20,10,25,18.10
2020,09,20,10,26,18.10
2020,09,20,10,27,18.20
2020,09,20,10,28,18.30
2020,09,20,10,30,18.40
2020,09,20,10,31,18.40
2020,09,20,10,32,18.50
2020,09,20,10,33,18.60
2020,09,20,10,34,18.60
2020,09,20,10,35,18.70
2020,09,20,10,36,18.70
2020,09,20,10,37,18.70
2020,09,20,10,38,18.70
2020,09,20,10,39,18.70
2020,09,20,10,41,18.70
2020,09,20,10,42,18.70
2020,09,20,10,43,18.70
2020,09,20,10,44,18.70
2020,09,20,10,45,18.70
2020,09,20,10,46,18.60
2020,09,20,10,47,18.70
2020,09,20,10,48,18.70
2020,09,20,10,49,18.80
2020,09,20,10,50,18.80
2020,09,20,10,52,18.90
2020,09,20,10,53,18.90
2020,09,20,10,54,18.90
2020,09,20,10,56,19.00
2020,09,20,10,58,18.80
2020,09,20,10,59,18.80
2020,09,20,11,00,18.80
2020,09,20,11,01,18.80
2020,09,20,11,02,18.80
2020,09,20,11,03,18.80
2020,09,20,11,04,18.80
2020,09,20,11,05,18.90
2020,09,20,11,06,18.90
2020,09,20,11,07,19.00
2020,09,20,11,08,19.10
2020,09,20,11,09,19.20
2020,09,20,11,10,19.30
2020,09,20,11,11,19.40
2020,09,20,11,12,19.40
2020,09,20,11,13,19.40
2020,09,20,11,14,19.50
2020,09,20,11,15,19.50
2020,09,20,11,16,19.50
2020,09,20,11,17,19.50
2020,09,20,11,18,19.60
2020,09,20,11,19,19.60
2020,09,20,11,20,19.70
2020,09,20,11,21,19.70
2020,09,20,11,22,19.70
2020,09,20,11,23,19.80
2020,09,20,11,24,19.90
2020,09,20,11,25,20.00
2020,09,20,11,26,20.10
2020,09,20,11,27,20.20
2020,09,20,11,28,20.20
2020,09,20,11,29,20.20
2020,09,20,11,30,20.20
2020,09,20,11,31,20.20
2020,09,20,11,32,20.20
2020,09,20,11,33,20.20
2020,09,20,11,34,20.20
2020,09,20,11,35,20.20
2020,09,20,11,36,20.20
2020,09,20,11,37,20.20
2020,09,20,11,38,20.20
2020,09,20,11,39,20.30
2020,09,20,11,40,20.30
2020,09,20,11,41,20.30
2020,09,20,11,42,20.40
2020,09,20,11,43,20.40
2020,09,20,11,45,20.60
2020,09,20,11,46,20.70
2020,09,20,11,48,20.70
2020,09,20,11,49,20.70
2020,09,20,11,50,20.60
2020,09,20,11,52,20.40
2020,09,20,11,53,20.30
2020,09,20,11,54,20.30
2020,09,20,11,55,20.20
2020,09,20,11,56,20.20
2020,09,20,11,57,20.20
2020,09,20,11,58,20.20
2020,09,20,11,59,20.20
2020,09,20,12,00,20.20
2020,09,20,12,01,20.20
2020,09,20,12,02,20.30
2020,09,20,12,03,20.30
2020,09,20,12,04,20.30
2020,09,20,12,05,20.30
2020,09,20,12,06,20.40
2020,09,20,12,07,20.40
2020,09,20,12,08,20.40
2020,09,20,12,09,20.40
2020,09,20,12,10,20.40
2020,09,20,12,11,20.40
2020,09,20,12,12,20.40
2020,09,20,12,13,20.40
2020,09,20,12,14,20.30
2020,09,20,12,15,20.30
2020,09,20,12,16,20.30
2020,09,20,12,17,20.30
2020,09,20,12,19,20.40
2020,09,20,12,20,20.40
2020,09,20,12,22,20.50
2020,09,20,12,23,20.60
2020,09,20,12,24,20.60
2020,09,20,12,25,20.60
2020,09,20,12,26,20.60
2020,09,20,12,28,20.60
2020,09,20,12,29,20.60
2020,09,20,12,30,20.60
2020,09,20,12,31,20.60
2020,09,20,12,32,20.60
2020,09,20,12,33,20.60
2020,09,20,12,34,20.60
2020,09,20,12,35,20.60
2020,09,20,12,36,20.60
2020,09,20,12,37,20.60
2020,09,20,12,38,20.60
2020,09,20,12,39,20.60
2020,09,20,12,40,20.60
2020,09,20,12,41,20.60
2020,09,20,12,42,20.60
2020,09,20,12,43,20.60
2020,09,20,12,44,20.60
2020,09,20,12,45,20.60
2020,09,20,12,46,20.70
2020,09,20,12,47,20.70
2020,09,20,12,48,20.70
2020,09,20,12,49,20.70
2020,09,20,12,50,20.60
2020,09,20,12,51,20.70
2020,09,20,12,52,20.70
2020,09,20,12,54,20.80
2020,09,20,12,55,20.80
2020,09,20,12,56,20.80
2020,09,20,12,57,20.90
2020,09,20,12,58,20.90
2020,09,20,12,59,21.10
2020,09,20,13,00,21.10
2020,09,20,13,01,21.10
2020,09,20,13,02,21.10
2020,09,20,13,03,21.10
2020,09,20,13,04,21.10
2020,09,20,13,05,21.10
2020,09,20,13,06,21.10
2020,09,20,13,07,21.10
2020,09,20,13,08,21.10
2020,09,20,13,09,21.10
2020,09,20,13,10,21.10
2020,09,20,13,11,21.20
2020,09,20,13,12,21.10
2020,09,20,13,14,21.10
2020,09,20,13,15,21.10
2020,09,20,13,16,21.10
2020,09,20,13,17,21.10
2020,09,20,13,18,21.10
2020,09,20,13,19,21.10
2020,09,20,13,20,21.10
2020,09,20,13,21,21.10
2020,09,20,13,22,21.10
2020,09,20,13,23,21.20
2020,09,20,13,24,21.20
2020,09,20,13,25,21.30
2020,09,20,13,27,21.30
2020,09,20,13,28,21.30
2020,09,20,13,29,21.30
2020,09,20,13,30,21.30
2020,09,20,13,31,21.30
2020,09,20,13,32,21.30
2020,09,20,13,33,21.30
2020,09,20,13,34,21.30
2020,09,20,13,35,21.30
2020,09,20,13,36,21.30
2020,09,20,13,37,21.30
2020,09,20,13,38,21.30
2020,09,20,13,39,21.30
2020,09,20,13,40,21.30
2020,09,20,13,41,21.30
2020,09,20,13,42,21.20
2020,09,20,13,43,21.20
2020,09,20,13,44,21.20
2020,09,20,13,46,21.20
2020,09,20,13,47,21.20
2020,09,20,13,48,21.10
2020,09,20,13,49,21.10
2020,09,20,13,50,21.20
2020,09,20,13,52,21.20
2020,09,20,13,53,21.30
2020,09,20,13,54,21.40
2020,09,20,13,55,21.40
2020,09,20,13,56,21.40
2020,09,20,13,57,21.50
2020,09,20,13,58,21.50
2020,09,20,13,59,21.50
2020,09,20,14,00,21.50
2020,09,20,14,01,21.60
2020,09,20,14,02,21.60
2020,09,20,14,03,21.60
2020,09,20,14,04,21.60
2020,09,20,14,05,21.60
2020,09,20,14,06,21.60
2020,09,20,14,07,21.60
2020,09,20,14,08,21.60
2020,09,20,14,09,21.60
2020,09,20,14,10,21.60
2020,09,20,14,11,21.60
2020,09,20,14,12,21.60
2020,09,20,14,13,21.60
2020,09,20,14,14,21.70
2020,09,20,14,15,21.70
2020,09,20,14,16,21.70
2020,09,20,14,17,21.70
2020,09,20,14,18,21.70
2020,09,20,14,19,21.70
2020,09,20,14,20,21.70
2020,09,20,14,21,21.60
2020,09,20,14,22,21.60
2020,09,20,14,23,21.60
2020,09,20,14,24,21.50
2020,09,20,14,25,21.40
2020,09,20,14,27,21.30
2020,09,20,14,28,21.30
2020,09,20,14,29,21.30
2020,09,20,14,30,21.30
2020,09,20,14,31,21.40
2020,09,20,14,32,21.50
2020,09,20,14,33,21.60
2020,09,20,14,34,21.60
2020,09,20,14,35,21.60
2020,09,20,14,36,21.60
2020,09,20,14,37,21.60
2020,09,20,14,38,21.60
2020,09,20,14,39,21.40
2020,09,20,14,40,21.40
2020,09,20,14,41,21.30
2020,09,20,14,42,21.30
2020,09,20,14,43,21.20
2020,09,20,14,44,21.10
2020,09,20,14,45,21.10
2020,09,20,14,46,21.00
2020,09,20,14,47,20.90
2020,09,20,14,48,20.90
2020,09,20,14,49,20.80
2020,09,20,14,50,20.80
2020,09,20,14,51,20.80
2020,09,20,14,52,20.80
2020,09,20,14,53,20.70
2020,09,20,14,54,20.70
2020,09,20,14,55,20.70
2020,09,20,14,57,20.70
2020,09,20,14,58,20.70
2020,09,20,14,59,20.70
2020,09,20,15,00,20.70
2020,09,20,15,01,20.70
2020,09,20,15,02,20.70
2020,09,20,15,03,20.70
2020,09,20,15,05,20.60
2020,09,20,15,06,20.60
2020,09,20,15,07,20.60
2020,09,20,15,08,20.60
2020,09,20,15,09,20.60
2020,09,20,15,11,20.60
2020,09,20,15,12,20.60
2020,09,20,15,13,20.60
2020,09,20,15,14,20.60
2020,09,20,15,16,20.60
2020,09,20,15,17,20.60
2020,09,20,15,18,20.60
2020,09,20,15,19,20.60
2020,09,20,15,20,20.70
2020,09,20,15,22,20.70
2020,09,20,15,23,20.70
2020,09,20,15,24,20.70
2020,09,20,15,25,20.70
2020,09,20,15,26,20.80
2020,09,20,15,27,20.80
2020,09,20,15,28,20.80
2020,09,20,15,29,20.90
2020,09,20,15,30,20.90
2020,09,20,15,31,21.10
2020,09,20,15,32,21.10
2020,09,20,15,33,21.20
2020,09,20,15,34,21.20
2020,09,20,15,35,21.30
2020,09,20,15,36,21.40
2020,09,20,15,37,21.50
2020,09,20,15,38,21.70
2020,09,20,15,40,21.80
2020,09,20,15,41,21.90
2020,09,20,15,42,22.00
2020,09,20,15,43,22.10
2020,09,20,15,44,22.10
2020,09,20,15,45,22.10
2020,09,20,15,46,22.20
2020,09,20,15,47,22.20
2020,09,20,15,48,22.20
2020,09,20,15,49,22.20
2020,09,20,15,50,22.20
2020,09,20,15,51,22.20
2020,09,20,15,52,22.20
2020,09,20,15,53,22.20
2020,09,20,15,54,22.30
2020,09,20,15,55,22.30
2020,09,20,15,56,22.30
2020,09,20,15,57,22.20
2020,09,20,15,58,22.20
2020,09,20,15,59,22.10
2020,09,20,16,00,22.10
2020,09,20,16,01,22.00
2020,09,20,16,02,21.90
2020,09,20,16,03,21.80
2020,09,20,16,04,21.80
2020,09,20,16,05,21.70
2020,09,20,16,06,21.60
2020,09,20,16,07,21.50
2020,09,20,16,08,21.40
2020,09,20,16,10,21.30
2020,09,20,16,11,21.30
2020,09,20,16,12,21.20
2020,09,20,16,13,21.20
2020,09,20,16,14,21.20
2020,09,20,16,15,21.20
2020,09,20,16,16,21.20
2020,09,20,16,17,21.20
2020,09,20,16,18,21.20
2020,09,20,16,19,21.10
2020,09,20,16,20,21.10
2020,09,20,16,21,21.10
2020,09,20,16,22,21.10
2020,09,20,16,23,21.00
2020,09,20,16,24,21.00
2020,09,20,16,25,21.00
2020,09,20,16,26,21.00
2020,09,20,16,27,21.00
2020,09,20,16,28,21.00
2020,09,20,16,29,20.90
2020,09,20,16,30,21.00
2020,09,20,16,31,21.00
2020,09,20,16,32,21.00
2020,09,20,16,33,21.00
2020,09,20,16,34,21.00
2020,09,20,16,35,21.00
2020,09,20,16,36,21.00
2020,09,20,16,37,21.00
2020,09,20,16,38,21.00
2020,09,20,16,39,21.00
2020,09,20,16,40,21.00
2020,09,20,16,41,21.00
2020,09,20,16,42,21.00
2020,09,20,16,43,21.10
2020,09,20,16,44,21.10
2020,09,20,16,46,21.10
2020,09,20,16,47,21.00
2020,09,20,16,48,21.10
2020,09,20,16,49,21.00
2020,09,20,16,50,21.00
2020,09,20,16,51,21.10
2020,09,20,16,52,21.10
2020,09,20,16,53,21.10
2020,09,20,16,54,21.10
2020,09,20,16,55,21.10
2020,09,20,16,56,21.10
2020,09,20,16,57,21.10
2020,09,20,16,58,21.10
2020,09,20,16,59,21.10
2020,09,20,17,00,21.10
2020,09,20,17,01,21.10
2020,09,20,17,02,21.10
2020,09,20,17,03,21.00
2020,09,20,17,04,20.90
2020,09,20,17,06,20.80
2020,09,20,17,07,20.80
2020,09,20,17,08,20.70
2020,09,20,17,09,20.70
2020,09,20,17,10,20.70
2020,09,20,17,11,20.60
2020,09,20,17,12,20.60
2020,09,20,17,13,20.50
2020,09,20,17,14,20.40
2020,09,20,17,15,20.40
2020,09,20,17,16,20.40
2020,09,20,17,17,20.40
2020,09,20,17,18,20.40
2020,09,20,17,19,20.40
2020,09,20,17,20,20.40
2020,09,20,17,21,20.40
2020,09,20,17,22,20.40
2020,09,20,17,23,20.40
2020,09,20,17,24,20.30
2020,09,20,17,25,20.30
2020,09,20,17,26,20.30
2020,09,20,17,27,20.20
2020,09,20,17,28,20.20
2020,09,20,17,29,20.20
2020,09,20,17,30,20.20
2020,09,20,17,31,20.20
2020,09,20,17,32,20.20
2020,09,20,17,33,20.20
2020,09,20,17,34,20.30
2020,09,20,17,35,20.30
2020,09,20,17,36,20.30
2020,09,20,17,37,20.30
2020,09,20,17,38,20.40
2020,09,20,17,39,20.40
2020,09,20,17,40,20.40
2020,09,20,17,41,20.50
2020,09,20,17,42,20.50
2020,09,20,17,43,20.60
2020,09,20,17,44,20.60
2020,09,20,17,45,20.60
2020,09,20,17,46,20.60
2020,09,20,17,47,20.60
2020,09,20,17,48,20.60
2020,09,20,17,49,20.50
2020,09,20,17,50,20.50
2020,09,20,17,51,20.50
2020,09,20,17,52,20.40
2020,09,20,17,53,20.40
2020,09,20,17,54,20.40
2020,09,20,17,55,20.30
2020,09,20,17,56,20.30
2020,09,20,17,57,20.30
2020,09,20,17,58,20.30
2020,09,20,17,59,20.30
2020,09,20,18,00,20.30
2020,09,20,18,01,20.30
2020,09,20,18,02,20.30
2020,09,20,18,03,20.30
2020,09,20,18,04,20.20
2020,09,20,18,05,20.20
2020,09,20,18,06,20.20
2020,09,20,18,07,20.20
2020,09,20,18,08,20.20
2020,09,20,18,09,20.20
2020,09,20,18,10,20.20
2020,09,20,18,11,20.20
2020,09,20,18,12,20.10
2020,09,20,18,13,20.10
2020,09,20,18,14,20.10
2020,09,20,18,15,20.00
2020,09,20,18,16,20.00
2020,09,20,18,17,20.00
2020,09,20,18,18,19.90
2020,09,20,18,19,19.90
2020,09,20,18,20,19.90
2020,09,20,18,21,19.80
2020,09,20,18,22,19.80
2020,09,20,18,23,19.80
2020,09,20,18,24,19.80
2020,09,20,18,25,19.70
2020,09,20,18,26,19.70
2020,09,20,18,27,19.70